Spokane Felts, WA
on Thursday, November 8, 2012

Thursday
Previous Day Next Day
Daily Summary
 ActualAverageRecord
Temperature
Mean Temperature °F 40°F  
Max Temperature 45°F 47°F 54°F (1999)
Min Temperature 27°F 32°F 27°F (2011)
Degree Days
Heating Degree Days 29 25  
Month to date heating degree days 133 193  
Since 1 July heating degree days 692 930  
Cooling Degree Days 0 0  
Month to date cooling degree days 0 0  
Year to date cooling degree days 509 406  
Moisture
Dew Point 29°F   
Average Humidity 69    
Maximum Humidity 92    
Minimum Humidity 45    
Precipitation
Precipitation 0.19 in 0.07 in 0.50 in (2000)
Month to date precipitation 0.63 0.54  
Year to date precipitation 16.22 13.49  
Wind
Wind Speed 2 mph   
Max Wind Speed 18 mph   
Max Gust Speed 25 mph   
Visibility 6 miles   
Events Rain , Snow   

Key: T is trace of precipitation, MM is missing value
Source: NWS Daily Summary
Time(PST)TemperatureDew PointHumidity Pressure Visibility Wind DirectionWind SpeedGust SpeedPrecipitationEvents Conditions
12:53 AM 34.0°F 28.0°F 79% 29.98 in 10.0 miles Calm Calm - N/A   Partly Cloudy
1:53 AM 32.0°F 28.9°F 88% 29.96 in 10.0 miles Calm Calm - N/A   Clear
2:53 AM 30.9°F 28.0°F 89% 29.94 in 10.0 miles Calm Calm - N/A   Clear
3:53 AM 30.0°F 25.0°F 82% 29.93 in 10.0 miles Calm Calm - N/A   Clear
4:31 AM 28.4°F 26.6°F 93% 29.89 in 9.0 miles Calm Calm - N/A   Partly Cloudy
4:53 AM 28.0°F 25.0°F 88% 29.92 in 2.0 miles Calm Calm - N/A   Partly Cloudy
5:04 AM 30.2°F 26.6°F 86% 29.87 in 7.0 miles Calm Calm - N/A   Partly Cloudy
5:53 AM 30.9°F 27.0°F 85% 29.88 in 10.0 miles Calm Calm - N/A   Clear
6:53 AM 28.9°F 25.0°F 85% 29.86 in 10.0 miles Calm Calm - N/A   Clear
7:53 AM 32.0°F 28.0°F 85% 29.83 in 10.0 miles Calm Calm - N/A   Clear
8:53 AM 36.0°F 30.0°F 79% 29.80 in 10.0 miles SSW 3.5 mph - N/A   Clear
9:53 AM 39.0°F 28.9°F 67% 29.78 in 10.0 miles Calm Calm - N/A   Clear
10:53 AM 41.0°F 30.0°F 65% 29.75 in 10.0 miles West 3.5 mph - N/A   Clear
11:53 AM 44.1°F 28.9°F 55% 29.73 in 10.0 miles ENE 11.5 mph - N/A   Mostly Cloudy
12:53 PM 45.0°F 26.1°F 48% 29.71 in 10.0 miles NE 6.9 mph - N/A   Mostly Cloudy
1:53 PM 45.0°F 26.1°F 48% 29.71 in 10.0 miles Variable 3.5 mph - N/A   Mostly Cloudy
2:53 PM 44.1°F 25.0°F 47% 29.72 in 10.0 miles NE 9.2 mph - N/A   Overcast
3:53 PM 39.0°F 32.0°F 76% 29.75 in 7.0 miles East 8.1 mph 18.4 mph 0.00 in Rain Light Rain
4:53 PM 37.0°F 33.1°F 86% 29.75 in 6.0 miles Calm Calm - 0.02 in Rain Light Rain
5:53 PM 36.0°F 32.0°F 86% 29.75 in 7.0 miles Calm Calm - 0.02 in Rain Light Rain
6:23 PM 35.6°F 32.0°F 87% 29.71 in 8.0 miles Calm Calm - 0.01 in Rain Light Rain
6:53 PM 35.1°F 30.9°F 85% 29.75 in 3.0 miles North 4.6 mph - 0.03 in Snow Light Snow
7:29 PM 33.8°F 30.2°F 87% 29.71 in 3.0 miles Calm Calm - 0.03 in Snow Light Snow
7:53 PM 34.0°F 30.9°F 89% 29.75 in 3.0 miles Calm Calm - 0.05 in Snow Light Snow
8:08 PM 33.8°F 30.2°F 87% 29.71 in 2.5 miles Calm Calm - 0.00 in Snow Light Snow
8:20 PM 33.8°F 30.2°F 87% 29.72 in 3.0 miles Calm Calm - 0.01 in Snow Light Snow
8:30 PM 33.8°F 30.2°F 87% 29.72 in 2.5 miles Calm Calm - 0.01 in Snow Light Snow
8:40 PM 33.8°F 30.2°F 87% 29.72 in 2.0 miles Calm Calm - 0.01 in Snow Light Snow
8:53 PM 34.0°F 30.9°F 89% 29.75 in 3.0 miles Calm Calm - 0.02 in Snow Light Snow
9:23 PM 33.8°F 30.2°F 87% 29.72 in 4.0 miles Calm Calm - 0.00 in Snow Light Snow
9:27 PM 33.8°F 30.2°F 87% 29.72 in 2.5 miles Calm Calm - 0.00 in Snow Light Snow
9:53 PM 34.0°F 30.9°F 89% 29.75 in 2.0 miles Calm Calm - 0.01 in Snow Light Snow
10:00 PM 33.8°F 30.2°F 87% 29.72 in 1.5 miles Calm Calm - 0.00 in Snow Light Snow
10:08 PM 33.8°F 30.2°F 87% 29.72 in 1.5 miles SSE 3.5 mph - 0.00 in Snow Light Snow
10:20 PM 33.8°F 30.2°F 87% 29.72 in 1.8 miles SE 3.5 mph - 0.01 in Snow Light Snow
10:27 PM 33.8°F 30.2°F 87% 29.72 in 2.0 miles Calm Calm - 0.01 in Snow Light Snow
10:39 PM 33.8°F 30.2°F 87% 29.72 in 1.2 miles Calm Calm - 0.02 in Snow Light Snow
10:53 PM 34.0°F 30.0°F 85% 29.75 in 2.0 miles Calm Calm - 0.02 in Snow Light Snow
11:06 PM 33.8°F 30.2°F 87% 29.72 in 1.2 miles Calm Calm - 0.00 in Snow Light Snow
11:53 PM 33.1°F 30.0°F 89% 29.75 in 1.8 miles Calm Calm - 0.02 in Snow Light Snow
Moon Phase
Nov. 08 Nov. 13 Nov. 20 Nov. 28 Dec. 06
Sunrise:06:45 AM (PST) Moon Rise:12:20 AM (PST)11/8
Sunset:04:20 PM (PST) Moon Set:01:25 PM (PST)11/8

Copyright © 2014 The Weather Underground, Inc.